Vorticity
6 6 6 6 5 6 5 4 6 6 6 7 7 6 7 9 8 7 4 4 4 4 4 3 4 5 6 6 6 7 6 4 3 5 5 5 4 4 5 4 6 6 5 6 6 5 4 3 4 6 5 6 6 6 6 6 6 5 5 3 3 4 4 5 5 6 5 5 4 4 5 5 5 5 6 5 5 5 5 7 7 6 6 5 5 6 5 6 5 5 6 6 5 4 3 4 5
6 6 4 5 4 5 5 4 3 4 5 5 5 5 5 5 7 6 4 2 1 2 3 3 4 4 6 5 4 5 6 3 2 4 3 4 3 5 7 5 5 6 6 6 6 5 4 4 5 6 5 6 6 7 7 6 6 5 3 3 4 5 6 6 6 5 5 5 5 6 7 8 8 7 7 6 5 5 5 6 7 7 7 6 6 6 5 6 5 5 5 6 5 4 3 3 4
2 3 3 3 3 5 6 6 5 1 3 5 4 3 3 3 3 3 4 3 2 3 2 4 4 4 5 5 5 5 4 3 2 3 4 3 2 5 7 5 5 5 5 6 6 5 4 5 5 6 6 6 6 7 6 5 5 4 3 4 5 6 6 6 5 5 6 7 7 9 9 9 9 9 8 8 7 6 6 5 5 6 7 7 7 7 5 5 5 5 5 6 6 6 4 3 3
-1 -1 1 2 3 5 6 7 5 2 2 2 2 2 3 3 3 4 4 4 5 5 4 3 3 4 5 5 5 5 3 2 3 6 6 3 3 6 4 4 5 4 4 6 6 5 5 6 5 5 6 5 6 5 5 6 5 4 5 6 6 6 6 6 6 6 7 7 8 8 7 8 7 7 7 7 7 7 7 6 6 5 6 7 8 8 6 6 5 5 6 5 5 6 5 4 3
4 4 3 5 4 2 5 6 4 3 3 2 2 2 2 3 4 4 4 5 5 5 5 4 5 4 3 5 7 6 5 2 2 6 4 2 5 6 5 3 5 5 4 5 5 5 6 6 5 5 5 5 5 4 4 6 6 5 6 6 6 6 7 6 7 7 7 6 6 6 7 7 7 6 6 6 6 6 6 7 8 6 5 5 7 9 8 7 5 5 5 6 6 6 6 5 3
5 7 6 7 6 4 5 6 6 4 2 2 2 2 2 3 3 4 4 5 5 5 5 6 6 5 3 6 8 5 6 3 1 8 5 3 6 5 5 4 3 4 3 4 6 6 6 6 6 5 5 5 5 4 6 7 6 6 6 6 6 7 7 7 7 6 6 6 6 6 7 7 7 7 7 7 6 6 5 5 6 7 7 6 6 7 9 9 7 6 4 4 6 6 6 6 4
3 5 5 4 4 6 7 6 6 5 5 4 3 3 2 2 3 3 3 3 4 3 2 3 4 6 6 5 7 4 6 5 2 10 7 2 6 4 4 5 4 3 3 4 6 7 6 6 6 6 6 6 6 6 6 7 7 7 7 6 7 7 7 7 6 5 5 6 7 7 7 8 8 8 9 9 8 7 6 6 5 5 7 7 7 6 7 9 10 9 7 5 4 4 5 6 6
3 4 4 3 2 3 6 9 7 4 5 5 4 4 3 2 3 4 3 3 4 3 2 5 5 5 6 5 5 5 5 6 4 10 10 4 4 5 4 5 4 3 4 4 6 7 7 7 6 6 7 6 7 7 7 7 7 7 7 7 7 7 7 6 6 6 7 7 7 7 7 7 8 9 9 10 9 8 8 8 7 5 5 6 7 7 7 7 8 9 10 8 7 6 5 4 5
4 5 5 5 2 1 4 10 11 7 5 4 5 5 5 5 5 6 4 3 4 4 6 7 7 5 8 7 4 5 6 6 7 9 11 6 4 7 6 4 4 4 4 5 7 7 7 7 7 8 7 7 7 7 7 7 8 7 6 7 7 7 6 6 6 7 7 7 6 7 7 8 9 9 10 11 11 10 9 9 9 8 6 5 5 6 6 6 7 8 9 10 10 10 8 6 4
4 5 4 7 7 7 9 8 8 8 7 4 5 6 5 5 5 4 3 5 6 5 6 7 9 8 8 8 5 6 7 7 7 6 9 6 4 9 7 5 5 4 6 6 7 7 7 7 8 9 7 6 7 7 7 7 7 7 7 7 7 7 7 7 8 8 7 6 6 6 8 9 10 10 11 12 13 12 11 11 11 10 8 8 7 6 6 5 5 6 7 9 10 11 10 10 8
3 4 2 5 4 8 13 12 11 10 10 6 6 7 4 4 5 5 4 6 8 7 7 7 8 10 9 8 6 5 4 5 5 4 6 5 4 8 7 6 6 5 6 7 7 7 7 7 8 10 9 7 7 7 7 7 7 7 7 7 7 7 8 9 8 8 7 6 6 8 9 9 10 10 10 11 11 12 12 12 11 11 10 10 10 10 9 8 7 6 6 7 7 8 9 10 10
3 6 5 1 1 11 12 9 16 16 13 10 9 9 8 6 5 6 5 7 8 6 5 5 5 6 8 7 5 4 3 3 6 6 5 5 6 7 7 6 6 5 6 9 8 7 7 8 8 9 9 7 6 6 6 7 8 8 8 7 8 8 8 9 9 8 7 7 7 8 9 10 10 9 9 9 8 9 9 10 10 10 10 10 10 10 10 10 9 8 8 7 7 7 7 7 8
5 5 4 -0 2 13 9 1 6 11 12 10 10 11 11 9 7 5 5 7 8 5 2 4 6 2 5 9 6 4 4 4 6 6 5 7 8 6 6 5 5 6 7 9 8 8 8 8 9 8 8 6 6 6 7 7 8 8 8 8 8 8 9 9 8 8 8 8 8 8 9 9 10 10 9 9 9 9 9 10 11 11 11 11 11 11 10 10 10 10 10 10 10 9 9 9 8
9 6 3 2 3 7 6 2 2 8 11 9 11 12 12 11 9 6 3 3 4 5 3 5 9 4 5 9 8 7 6 5 5 6 6 7 7 6 6 5 6 7 8 9 9 9 9 9 9 8 6 6 6 6 6 7 8 9 8 9 8 8 8 8 8 8 8 8 7 7 8 8 8 9 9 9 9 10 10 11 11 11 11 12 12 12 12 12 11 11 11 12 12 12 12 12 11
10 9 3 3 4 5 5 2 2 7 8 5 9 11 9 8 9 10 7 5 3 5 5 7 9 5 6 7 7 10 10 8 6 6 6 5 6 6 6 7 7 8 9 8 9 10 11 10 8 7 6 6 6 6 6 7 8 8 8 8 8 7 7 7 7 7 7 7 7 7 6 7 7 8 7 7 7 8 8 8 8 8 9 9 9 10 11 10 10 10 11 11 12 12 11 12 13
9 7 3 4 2 5 7 5 4 3 4 5 6 8 8 4 7 8 5 7 7 8 8 7 6 3 4 4 5 9 11 11 7 5 6 5 5 6 6 8 9 9 10 8 9 12 12 10 8 7 6 6 6 6 6 7 8 8 7 7 7 7 6 6 7 6 6 6 6 6 6 6 6 6 5 5 5 5 5 4 5 5 5 6 6 6 6 5 6 7 7 7 8 8 7 8 10
6 3 3 7 3 7 7 8 8 2 3 4 3 8 9 8 11 8 3 6 7 7 10 10 8 4 4 3 2 4 7 11 9 6 6 5 6 6 6 8 9 9 10 9 10 12 11 9 8 7 5 6 6 7 7 7 7 7 7 7 7 7 6 7 6 6 5 6 5 5 5 5 5 4 4 4 4 4 4 5 5 5 5 6 5 4 4 5 6 6 5 5 5 6 5 6 7
3 3 5 6 2 8 7 9 11 5 3 -1 1 7 7 8 11 7 5 7 7 5 7 10 10 7 7 5 4 3 5 10 10 8 8 7 6 6 7 8 9 9 9 9 11 11 10 9 8 6 6 6 7 7 7 7 7 6 7 7 7 6 6 6 6 6 5 5 5 4 5 5 4 3 3 3 3 4 5 5 6 6 6 6 6 5 6 6 6 6 5 5 5 5 5 5 6
4 4 7 6 0 3 4 9 11 6 5 -1 1 8 6 6 8 8 9 11 9 6 6 8 10 10 9 7 9 6 3 8 9 8 11 8 7 7 8 10 9 8 9 9 11 11 9 8 8 6 6 6 7 7 7 7 6 6 7 7 7 7 6 6 6 6 5 5 5 4 4 5 5 4 4 5 4 4 5 6 6 6 6 6 6 6 6 6 6 7 6 5 5 5 5 5 6
5 4 7 7 2 1 2 9 10 4 4 2 2 6 6 5 8 8 11 18 15 8 7 8 9 11 10 7 10 10 4 5 7 8 11 9 7 7 9 11 9 8 9 10 11 10 9 8 7 6 5 6 7 7 7 6 6 6 6 6 6 6 6 6 6 6 5 5 5 5 4 4 5 5 5 6 5 4 4 5 5 6 6 6 6 6 6 5 5 6 5 5 4 5 6 6 6
0 1 6 3 0 2 2 7 10 5 2 3 0 2 7 6 8 6 5 15 17 10 6 6 6 8 10 7 8 12 8 5 7 9 11 10 8 7 8 10 9 9 10 11 10 9 8 7 6 6 5 6 7 8 7 6 6 5 5 6 6 6 5 5 5 5 5 5 5 5 5 5 5 5 6 5 5 5 4 4 4 5 5 6 6 7 6 6 6 5 5 5 5 5 5 5 5
1 3 5 2 1 3 2 5 11 10 4 3 -1 -1 6 6 8 11 8 8 11 10 6 6 7 9 12 9 8 11 11 8 8 8 9 11 8 7 8 10 11 11 11 10 10 8 7 7 6 6 6 5 7 8 7 6 5 5 5 5 5 5 5 5 5 5 5 6 6 5 4 5 5 5 5 5 5 5 4 4 4 4 4 5 5 6 6 6 6 5 5 6 6 6 5 5 5
1 4 4 1 3 3 3 5 9 10 6 3 1 2 4 5 5 9 12 9 8 8 7 9 10 12 12 10 9 9 10 10 10 9 8 10 9 6 7 9 10 11 12 10 9 8 7 6 5 5 6 6 6 7 7 7 6 6 5 5 4 4 4 5 5 5 5 6 6 6 5 5 5 4 4 4 4 4 5 5 5 5 5 5 4 5 4 4 5 5 5 5 5 6 5 5 5
-1 3 5 2 1 2 2 4 4 6 8 3 2 3 2 3 0 -1 5 6 7 7 7 9 9 11 11 8 10 10 11 11 10 9 7 10 9 7 8 8 9 10 11 10 8 9 7 5 5 5 6 6 6 6 6 6 6 6 6 5 5 4 4 4 5 5 5 6 6 6 6 5 4 4 4 4 4 4 4 5 5 5 5 4 4 4 4 4 4 4 4 4 4 5 5 5 4
2 3 3 2 0 1 1 1 0 2 6 4 3 4 2 -0 -0 0 1 1 6 10 12 12 9 10 10 9 10 11 15 14 10 7 6 9 9 9 10 9 10 10 10 9 7 9 7 4 5 4 6 7 7 5 5 5 5 6 5 5 5 4 4 3 4 4 5 6 6 6 6 5 5 5 5 4 4 4 4 5 5 5 5 5 5 4 4 5 4 4 4 4 4 4 5 5 4
4 -2 -2 2 2 1 1 -0 -2 -7 -5 3 5 3 1 -2 1 4 2 4 6 8 13 13 11 12 11 9 10 11 15 17 12 8 6 7 8 10 10 10 11 11 11 8 8 9 6 4 4 4 6 7 7 6 5 5 5 5 5 5 4 4 4 3 4 5 6 6 6 6 6 5 5 5 5 5 5 5 5 5 5 5 5 5 4 4 4 4 4 4 4 4 5 5 5 5 5
1 -5 -1 3 3 1 -1 -3 -4 -6 -3 12 14 3 -0 -1 1 2 1 5 6 6 11 12 11 13 14 10 8 11 13 15 13 9 7 5 8 9 9 10 10 11 11 6 9 10 5 3 4 5 6 7 7 7 6 5 5 4 4 4 4 4 3 4 4 5 6 6 6 6 6 6 5 5 5 5 6 6 5 5 5 5 4 4 4 4 4 4 3 4 4 4 4 4 5 5 5
-2 -6 2 2 1 4 5 -2 -4 2 8 18 17 4 -2 -1 1 1 -0 4 6 5 6 10 11 9 14 13 9 13 12 11 11 10 8 5 8 9 8 10 8 12 10 6 10 8 4 4 4 5 7 7 7 7 7 6 5 5 5 4 4 4 4 4 4 6 6 6 6 6 6 6 5 5 6 6 7 6 5 5 4 3 3 3 3 3 3 3 3 4 4 3 3 4 5 5 5
-3 -5 5 3 -4 3 9 1 -1 8 13 17 17 10 3 -1 1 1 -0 3 6 7 4 7 10 7 13 15 11 14 12 9 11 12 9 5 9 11 10 9 8 12 9 7 11 7 4 4 4 7 7 7 7 6 7 6 6 6 6 6 5 5 5 5 5 5 6 6 7 6 6 6 6 6 6 7 7 6 5 4 3 3 2 2 3 3 3 3 3 4 3 3 3 4 5 5 5
-1 -2 6 3 -5 3 9 4 3 9 13 14 14 11 6 2 2 2 0 2 5 7 6 7 9 6 11 16 13 13 12 11 11 11 9 7 9 11 12 9 8 11 7 7 10 6 4 5 5 7 7 7 7 6 7 6 6 6 6 6 6 6 5 6 6 5 6 6 6 6 6 6 7 6 6 7 6 6 5 5 4 4 3 4 4 5 5 4 4 5 5 5 5 5 5 5 5
2 -2 6 5 -3 5 10 3 1 9 14 13 12 9 4 3 4 4 1 1 4 7 7 7 7 4 7 14 14 13 13 15 13 9 8 9 9 10 12 9 8 10 7 7 9 5 5 5 6 8 7 6 6 6 6 6 6 6 6 6 6 6 6 6 6 6 6 5 6 6 6 6 7 6 6 5 5 5 5 5 6 5 6 6 7 8 8 8 9 8 8 8 9 9 8 7 7
6 -3 5 8 2 5 5 -1 4 14 14 8 11 9 5 8 7 3 1 0 3 6 6 5 5 6 7 9 12 14 13 13 16 12 9 11 9 9 11 9 8 9 6 7 8 5 5 5 7 8 7 6 6 6 6 6 6 6 6 6 6 6 6 6 6 6 7 7 6 6 6 6 6 5 5 4 4 4 3 3 4 4 4 5 6 7 8 9 10 10 10 10 10 9 10 10 10
12 4 9 10 8 7 -1 1 9 12 13 14 14 9 9 13 8 2 -0 -0 1 4 5 3 6 10 10 8 9 13 13 11 17 17 12 12 10 10 11 8 8 8 7 7 7 6 5 6 8 8 7 7 7 6 6 6 6 6 6 5 6 6 6 7 6 7 7 8 8 6 6 6 5 4 4 3 2 2 2 1 2 2 3 4 5 6 7 7 8 8 9 10 9 10 11 11 11
14 9 14 13 12 7 -1 6 12 9 15 19 12 7 10 10 5 3 1 1 2 4 7 7 9 9 7 9 8 9 13 11 15 20 17 12 9 10 11 8 7 7 8 8 6 6 6 6 8 8 8 7 6 7 7 7 7 6 6 6 6 6 7 7 7 8 8 8 8 7 6 5 4 3 2 2 1 2 2 2 2 2 3 5 7 8 7 6 6 8 8 9 9 10 11 11 12
12 7 11 12 12 8 2 5 11 10 10 11 7 5 7 3 2 4 1 1 3 3 6 9 12 12 7 8 8 7 11 10 12 20 22 15 9 9 10 7 7 7 8 8 6 5 5 6 7 8 8 7 6 7 7 7 8 7 7 7 6 6 7 8 8 7 8 8 7 6 5 4 4 3 2 2 3 3 3 3 4 5 6 8 10 10 7 5 7 7 7 8 8 8 9 10 12
11 9 9 11 12 8 2 2 7 7 4 11 12 3 0 1 1 0 -1 0 2 2 4 3 6 13 12 9 9 6 8 12 11 17 23 18 10 8 8 7 6 7 8 8 6 6 5 6 7 7 6 6 6 6 6 7 8 8 9 9 9 7 7 7 8 7 7 7 5 5 4 4 4 4 3 3 4 6 6 6 7 8 10 12 13 9 5 5 7 7 7 8 7 7 8 9 9
10 9 9 10 11 5 1 3 6 3 3 9 9 2 1 1 -0 -0 1 2 1 -1 -0 -1 1 11 15 13 13 8 7 13 12 13 21 20 12 7 7 7 6 7 7 6 6 5 5 7 8 7 6 5 5 5 5 6 7 8 9 10 11 10 7 7 7 6 5 4 4 3 3 4 5 5 5 5 5 7 8 9 10 11 12 14 12 7 4 6 6 6 7 7 7 7 7 7 7
10 9 8 8 10 6 1 4 5 2 3 6 7 7 1 -4 -0 4 2 1 -0 -2 -2 -2 -0 8 14 11 12 10 7 11 11 10 17 20 15 9 7 8 6 6 7 7 6 5 6 8 8 8 7 4 4 5 5 6 7 8 8 9 11 11 9 7 7 5 4 3 2 2 3 4 4 4 4 4 6 9 10 10 9 10 12 12 8 5 5 5 5 6 6 6 6 6 6 7 6
9 10 7 7 12 10 3 3 5 1 0 6 11 10 0 -4 4 5 -0 -2 -1 -1 2 3 5 11 13 7 10 14 10 9 11 10 13 15 15 12 8 7 6 6 7 6 7 7 7 8 8 9 8 5 4 5 4 5 7 8 8 8 9 11 9 6 7 6 4 4 2 2 2 3 2 2 2 4 8 10 10 10 10 11 11 9 6 5 4 4 6 7 5 5 5 5 6 7 8
7 8 7 10 13 10 7 5 5 2 -3 2 10 9 5 2 4 3 -2 -1 1 1 5 8 12 15 11 3 7 16 12 7 10 11 13 13 14 13 9 8 7 7 8 6 5 7 6 6 7 8 8 7 7 6 4 5 7 7 8 7 7 9 8 5 6 6 5 4 3 3 2 2 1 1 3 4 7 10 10 10 12 11 9 7 5 3 3 5 7 6 5 5 5 6 8 11 10
7 7 6 11 12 9 11 8 4 3 -2 -3 3 9 10 1 -1 1 -1 4 7 4 4 4 7 10 8 6 10 15 12 6 7 10 13 13 15 15 11 9 9 7 7 7 6 7 7 6 7 7 8 8 7 6 6 6 6 6 8 8 7 8 8 6 5 5 5 3 3 3 2 2 2 2 4 4 6 9 8 9 11 9 7 5 3 3 5 6 6 5 4 5 8 10 11 12 11
8 5 6 12 13 8 10 9 3 2 1 -2 -3 6 11 2 -3 -2 0 7 7 5 3 -3 -0 6 6 9 13 13 12 8 6 9 13 13 14 14 10 8 10 8 7 7 8 7 6 7 7 6 6 7 6 6 7 7 5 6 7 8 7 8 8 8 7 5 4 3 2 2 2 2 3 3 4 5 6 8 7 7 7 5 4 3 3 4 6 6 5 4 5 7 10 10 9 9 8
14 10 7 10 14 10 9 10 3 -0 4 4 -5 -4 4 6 1 -5 1 7 2 2 3 -4 1 6 2 4 10 10 11 12 8 7 10 13 13 12 10 9 9 8 7 6 7 6 5 5 5 5 5 6 7 7 8 7 5 6 6 7 8 7 7 9 8 4 4 4 3 3 2 2 3 4 5 6 7 8 8 6 5 5 4 4 5 6 7 5 4 4 6 8 8 7 8 8 7
26 22 9 6 14 12 8 10 6 0 3 5 0 -8 -6 8 9 -2 2 7 4 4 3 -2 -0 1 1 5 11 11 7 9 11 8 8 10 13 13 10 10 9 7 5 4 5 5 5 5 4 5 5 5 7 8 8 6 5 6 6 6 8 7 7 9 8 5 6 5 3 4 3 2 4 4 4 7 8 9 8 5 4 5 5 6 6 6 6 4 4 6 7 7 7 7 8 8 7
29 27 10 6 14 14 10 7 6 5 1 1 6 -3 -11 7 18 6 4 9 8 5 4 3 -2 -3 5 10 14 16 11 11 12 10 9 8 10 13 11 9 10 8 6 4 5 5 5 7 7 8 7 5 6 8 9 7 5 6 6 7 7 6 6 7 7 6 6 5 4 4 3 3 5 4 4 7 9 10 8 6 4 4 6 7 6 6 4 4 5 6 6 6 7 9 9 9 8
24 22 11 8 9 14 13 4 5 8 -5 -3 14 3 -17 1 22 13 7 17 17 11 8 4 -4 -3 5 4 4 10 12 13 12 9 11 10 8 11 11 8 8 9 8 7 7 6 6 7 8 8 8 7 6 7 8 8 7 6 6 6 6 5 6 7 6 5 5 6 5 4 4 4 4 3 3 7 10 10 8 6 4 4 7 7 6 5 4 5 6 5 6 8 9 8 7 5 5
14 15 12 8 5 12 13 5 7 1 -15 -0 23 4 -21 1 32 19 4 16 23 16 9 0 -5 0 3 -3 -3 2 4 8 12 10 9 8 7 7 9 9 8 7 9 10 10 9 7 7 8 9 10 9 8 7 6 7 7 8 6 5 5 6 7 7 7 5 5 6 5 4 5 5 3 2 2 6 10 10 8 7 4 5 8 7 5 4 4 6 6 5 7 7 6 5 4 3 4
8 10 10 8 4 8 10 10 7 -13 -19 11 28 8 -14 -0 25 16 1 13 22 18 11 2 1 4 -1 -4 1 5 3 3 7 9 9 8 7 6 7 9 11 9 9 9 11 11 9 8 7 8 9 10 9 9 8 5 7 8 8 5 4 6 8 8 7 5 5 7 7 6 6 4 2 1 0 3 10 12 10 7 4 6 9 6 4 5 6 6 5 6 6 3 3 5 5 6 7
7 8 8 7 7 6 5 8 1 -19 -11 21 27 8 -13 -19 -4 5 4 10 18 21 15 2 -0 2 -1 -2 2 3 2 2 4 6 9 10 8 6 7 7 10 12 9 7 8 9 8 7 6 6 6 7 8 9 10 7 6 7 8 8 5 4 8 7 5 5 5 6 7 7 6 4 3 3 1 1 9 14 12 7 5 8 8 4 4 6 5 5 5 4 1 2 6 10 11 11 10
9 11 9 5 7 9 9 11 2 -12 -1 24 29 7 -18 -18 1 13 11 5 6 18 20 5 -2 1 2 1 2 1 1 1 1 2 6 10 11 10 8 5 7 10 8 5 5 6 6 5 5 5 4 5 5 6 8 9 9 7 6 8 7 5 7 7 5 5 5 5 7 7 5 5 5 3 1 1 7 13 13 7 6 8 7 3 5 6 5 5 4 1 2 7 11 12 12 11 8
7 12 13 7 7 9 10 13 8 -1 -1 15 25 5 -18 -9 5 5 6 8 8 15 18 10 2 2 3 1 1 0 -0 -0 -1 0 2 5 10 13 11 7 5 6 7 5 3 4 5 5 6 6 4 5 5 5 5 6 8 8 7 8 8 8 7 6 5 4 4 6 7 6 5 6 5 2 2 3 6 12 14 8 7 8 5 3 6 6 5 5 2 2 7 11 11 9 8 7 5
6 8 9 8 13 15 12 13 12 7 1 4 14 4 -8 -1 3 0 4 6 8 12 15 11 6 4 3 3 4 1 -2 -0 0 2 2 0 5 11 12 11 7 6 6 5 3 4 5 6 6 6 5 5 6 7 7 4 2 4 5 6 7 8 7 5 5 5 5 5 5 5 4 3 2 2 5 6 5 10 15 10 8 8 3 4 6 5 4 3 1 5 11 9 7 7 6 6 6
7 9 6 3 9 14 13 13 14 11 5 5 10 7 2 5 7 12 14 9 5 5 9 13 11 9 5 2 5 5 2 0 4 11 10 3 3 6 10 11 10 8 6 4 4 5 6 6 4 4 5 6 7 7 9 7 5 3 2 4 5 6 7 6 5 5 4 3 3 4 2 2 4 4 6 6 4 9 15 12 8 6 3 4 5 4 4 2 3 8 9 5 5 6 5 4 5
4 9 9 5 7 9 8 10 15 13 6 9 14 9 8 12 10 10 12 14 13 4 2 8 9 11 11 4 2 6 5 2 7 13 9 3 3 5 8 10 9 9 8 7 5 5 7 6 4 4 4 5 8 7 7 7 7 6 4 4 4 3 5 6 5 4 3 4 5 5 4 5 5 3 4 6 5 9 15 13 9 4 4 5 4 4 3 1 5 8 4 2 4 5 4 3 4
4 5 5 6 8 7 5 4 9 11 5 9 17 12 13 20 16 10 7 9 13 10 6 7 6 8 11 9 9 10 8 3 6 10 6 7 11 10 13 14 10 9 9 9 7 6 7 5 3 4 5 8 10 10 10 8 8 10 8 6 4 2 3 4 5 5 4 6 6 5 4 4 3 2 7 11 8 9 14 14 8 4 4 5 4 3 2 2 6 6 1 2 5 6 6 6 7
5 5 3 4 3 5 8 3 3 9 1 0 10 14 22 27 20 17 17 13 14 15 11 8 7 7 5 5 6 9 17 16 12 12 8 7 10 10 15 19 15 9 8 10 9 6 7 5 3 5 7 9 10 10 12 11 11 13 11 9 8 6 4 3 3 4 6 8 6 3 3 3 3 3 8 13 9 8 14 15 7 3 5 6 3 2 2 3 6 5 1 3 7 9 8 7 9
4 4 3 3 1 2 6 2 4 10 4 5 9 5 14 25 21 20 19 15 15 16 12 8 7 6 7 6 -2 3 28 30 13 7 4 1 3 7 12 19 19 11 6 9 11 8 7 5 4 6 8 10 9 9 10 11 13 13 12 13 12 10 7 4 4 4 5 7 6 5 5 4 4 7 12 15 10 7 15 16 6 3 6 5 3 3 2 4 5 4 2 5 10 10 5 4 8
5 6 4 5 4 2 2 1 4 6 3 7 4 -7 4 19 17 16 17 14 15 16 15 13 10 7 10 11 2 7 28 24 2 -1 2 -0 2 5 9 17 20 15 9 9 11 8 6 5 5 6 9 9 7 6 8 11 13 13 14 14 12 10 8 7 6 6 5 6 6 5 5 4 6 10 13 12 7 8 18 16 4 3 7 5 2 2 3 4 4 3 3 5 7 5 2 4 8
Height
5888 5888 5887 5888 5888 5888 5888 5887 5887 5887 5888 5888 5888 5888 5888 5889 5890 5890 5890 5890 5890 5891 5891 5891 5891 5892 5892 5893 5893 5893 5892 5892 5892 5892 5893 5895 5896 5896 5896 5896 5897 5897 5897 5897 5897 5898 5898 5898 5897 5897 5897 5898 5899 5900 5900 5900 5901 5901 5901 5902 5902 5902 5902 5902 5902 5902 5903 5903 5903 5903 5904 5904 5904 5904 5904 5905 5905 5905 5905 5905 5905 5905 5905 5905 5906 5906 5906 5906 5907 5907 5908 5909 5909 5909 5909 5909 5909
5889 5889 5889 5889 5890 5889 5889 5888 5888 5888 5889 5890 5890 5889 5890 5891 5891 5891 5891 5891 5891 5891 5892 5892 5892 5892 5892 5893 5893 5893 5893 5893 5893 5893 5894 5894 5896 5897 5897 5897 5897 5898 5898 5898 5898 5898 5899 5898 5898 5898 5898 5899 5900 5900 5901 5901 5901 5902 5902 5903 5902 5902 5903 5903 5903 5903 5903 5904 5904 5905 5905 5905 5905 5905 5905 5905 5905 5906 5906 5906 5906 5906 5906 5906 5907 5907 5907 5907 5907 5908 5909 5909 5910 5910 5910 5910 5910
5890 5890 5890 5890 5891 5891 5890 5890 5889 5890 5890 5891 5891 5891 5891 5892 5892 5892 5893 5892 5892 5892 5892 5892 5892 5892 5893 5894 5894 5894 5894 5893 5894 5894 5894 5894 5895 5897 5898 5898 5898 5899 5899 5899 5899 5899 5899 5899 5899 5900 5900 5900 5901 5901 5902 5902 5902 5903 5903 5903 5903 5903 5903 5903 5904 5904 5904 5905 5905 5906 5906 5905 5905 5905 5905 5905 5906 5906 5906 5907 5907 5907 5907 5907 5907 5908 5907 5908 5908 5909 5910 5910 5910 5911 5911 5911 5911
5890 5891 5891 5891 5891 5891 5892 5891 5891 5891 5891 5891 5891 5892 5892 5892 5893 5893 5893 5893 5893 5893 5892 5892 5892 5893 5894 5894 5895 5895 5895 5894 5895 5895 5895 5895 5896 5897 5898 5898 5899 5899 5900 5900 5900 5900 5900 5900 5901 5901 5901 5901 5902 5902 5903 5903 5903 5904 5904 5904 5904 5904 5904 5904 5904 5905 5905 5905 5906 5906 5906 5905 5905 5905 5906 5906 5906 5907 5907 5907 5907 5907 5907 5908 5908 5908 5908 5909 5909 5909 5910 5911 5911 5912 5912 5912 5912
5891 5891 5892 5892 5892 5892 5892 5892 5892 5892 5892 5892 5892 5892 5892 5893 5893 5893 5893 5893 5893 5894 5893 5893 5893 5893 5893 5894 5895 5896 5896 5895 5895 5895 5896 5896 5896 5897 5898 5898 5899 5899 5900 5900 5900 5901 5901 5901 5901 5902 5902 5902 5903 5903 5904 5904 5904 5905 5905 5905 5905 5905 5905 5905 5905 5905 5906 5906 5906 5906 5906 5906 5906 5906 5906 5906 5907 5907 5907 5907 5908 5908 5908 5908 5909 5909 5909 5909 5909 5910 5911 5911 5912 5912 5913 5913 5913
5891 5892 5892 5893 5893 5893 5893 5893 5893 5893 5893 5893 5893 5892 5892 5893 5893 5893 5893 5893 5893 5894 5894 5894 5894 5894 5893 5894 5895 5896 5896 5896 5896 5896 5896 5896 5897 5897 5898 5898 5899 5900 5900 5901 5901 5901 5901 5902 5902 5902 5903 5903 5904 5904 5905 5905 5905 5905 5906 5906 5906 5906 5906 5906 5906 5906 5907 5907 5907 5907 5907 5907 5906 5906 5907 5907 5907 5907 5907 5908 5908 5908 5909 5909 5909 5910 5910 5910 5910 5910 5911 5912 5912 5913 5913 5914 5914
5892 5892 5893 5894 5894 5894 5894 5894 5894 5894 5894 5894 5893 5893 5893 5893 5893 5894 5894 5894 5894 5894 5894 5894 5895 5894 5894 5894 5895 5896 5897 5897 5897 5897 5897 5897 5897 5897 5898 5898 5899 5900 5901 5901 5901 5902 5902 5902 5902 5903 5903 5904 5904 5905 5905 5906 5906 5906 5906 5907 5907 5907 5907 5907 5907 5908 5908 5908 5908 5908 5907 5907 5907 5907 5907 5907 5908 5908 5908 5908 5909 5909 5909 5909 5910 5910 5911 5911 5911 5911 5911 5912 5912 5913 5913 5914 5914
5893 5893 5893 5894 5895 5895 5896 5895 5895 5895 5895 5894 5894 5894 5893 5893 5893 5894 5894 5894 5894 5894 5894 5894 5894 5894 5895 5895 5895 5896 5897 5897 5897 5897 5898 5898 5898 5898 5898 5899 5900 5900 5901 5902 5902 5902 5902 5902 5903 5903 5903 5904 5905 5905 5906 5906 5907 5907 5907 5908 5908 5908 5908 5908 5909 5909 5909 5909 5909 5908 5908 5908 5908 5908 5908 5908 5908 5908 5908 5909 5909 5909 5910 5910 5910 5911 5911 5911 5911 5911 5911 5912 5913 5913 5913 5914 5914
5893 5894 5894 5894 5895 5896 5897 5897 5896 5896 5895 5895 5895 5895 5894 5894 5894 5894 5894 5894 5894 5894 5894 5895 5895 5895 5895 5895 5895 5897 5897 5897 5897 5898 5898 5899 5899 5898 5899 5900 5900 5900 5901 5902 5902 5903 5903 5903 5903 5904 5904 5905 5905 5906 5907 5907 5908 5908 5908 5909 5909 5909 5909 5909 5910 5910 5910 5910 5910 5909 5909 5909 5909 5909 5908 5908 5908 5908 5909 5909 5910 5910 5910 5911 5911 5911 5911 5911 5911 5911 5912 5912 5913 5913 5913 5914 5914
5894 5894 5894 5895 5896 5897 5898 5898 5898 5896 5896 5896 5896 5896 5895 5895 5895 5895 5895 5895 5895 5895 5895 5895 5895 5895 5896 5896 5896 5897 5897 5897 5897 5898 5898 5899 5899 5899 5900 5900 5901 5901 5902 5902 5903 5903 5903 5903 5904 5904 5905 5905 5906 5907 5907 5908 5908 5909 5909 5910 5910 5910 5910 5910 5910 5911 5911 5911 5910 5910 5910 5910 5910 5909 5909 5909 5909 5909 5910 5910 5910 5910 5911 5911 5911 5912 5912 5912 5912 5912 5912 5913 5913 5913 5914 5914 5914
5894 5895 5895 5895 5896 5897 5898 5899 5899 5897 5897 5897 5897 5896 5896 5895 5895 5895 5895 5895 5896 5895 5895 5895 5895 5895 5896 5895 5895 5896 5897 5897 5897 5898 5899 5899 5900 5900 5900 5901 5901 5902 5902 5903 5903 5903 5903 5903 5904 5905 5905 5906 5907 5907 5908 5909 5909 5910 5910 5910 5911 5911 5911 5911 5911 5912 5912 5912 5911 5911 5911 5911 5911 5911 5910 5910 5910 5910 5911 5911 5911 5911 5912 5912 5912 5912 5912 5912 5912 5912 5912 5913 5913 5913 5914 5914 5914
5895 5895 5895 5895 5896 5897 5899 5899 5899 5898 5898 5898 5898 5897 5897 5896 5896 5895 5895 5895 5895 5895 5895 5895 5896 5896 5896 5895 5895 5896 5896 5897 5898 5898 5899 5900 5900 5900 5900 5901 5901 5902 5903 5903 5904 5904 5903 5904 5904 5905 5906 5907 5907 5908 5909 5909 5910 5911 5911 5911 5911 5912 5912 5912 5912 5913 5913 5913 5913 5913 5913 5913 5912 5912 5911 5911 5911 5911 5912 5912 5912 5912 5913 5913 5913 5913 5913 5912 5912 5913 5913 5913 5913 5914 5914 5914 5914
5895 5896 5895 5895 5896 5897 5899 5899 5899 5899 5898 5899 5898 5898 5898 5897 5896 5895 5895 5895 5895 5895 5895 5895 5896 5896 5896 5896 5896 5896 5896 5896 5898 5899 5900 5900 5900 5901 5901 5901 5902 5902 5903 5904 5904 5904 5904 5904 5905 5905 5906 5908 5908 5909 5910 5910 5911 5912 5912 5912 5913 5913 5913 5913 5914 5914 5914 5914 5914 5914 5914 5914 5914 5913 5913 5913 5912 5912 5913 5913 5913 5913 5914 5914 5914 5914 5913 5913 5913 5913 5913 5914 5914 5914 5914 5914 5914
5895 5896 5896 5895 5896 5897 5898 5899 5899 5898 5898 5898 5899 5899 5899 5898 5896 5895 5895 5894 5894 5895 5895 5895 5895 5895 5896 5896 5896 5896 5896 5896 5897 5899 5899 5900 5901 5901 5901 5901 5902 5903 5903 5904 5905 5905 5905 5905 5905 5906 5907 5908 5909 5910 5910 5911 5912 5913 5913 5913 5914 5914 5914 5915 5915 5915 5915 5916 5916 5916 5916 5916 5915 5915 5915 5914 5914 5914 5914 5914 5914 5914 5914 5914 5914 5914 5914 5914 5914 5914 5914 5914 5915 5915 5915 5915 5915
5896 5897 5896 5895 5896 5897 5897 5898 5898 5897 5897 5897 5898 5898 5898 5897 5896 5895 5894 5893 5893 5894 5894 5895 5895 5895 5895 5896 5897 5897 5896 5896 5897 5898 5899 5900 5901 5901 5901 5902 5902 5903 5904 5904 5905 5905 5906 5906 5906 5907 5908 5909 5910 5910 5911 5912 5913 5914 5914 5915 5915 5915 5916 5916 5916 5917 5917 5917 5917 5917 5917 5917 5917 5917 5917 5916 5916 5916 5916 5916 5916 5916 5916 5916 5916 5915 5916 5916 5916 5915 5915 5915 5915 5915 5916 5915 5915
5895 5896 5896 5895 5896 5897 5897 5898 5897 5896 5896 5896 5896 5897 5897 5897 5896 5894 5894 5893 5893 5894 5894 5895 5895 5895 5895 5896 5896 5897 5897 5896 5897 5897 5899 5899 5900 5901 5902 5902 5902 5903 5904 5905 5905 5906 5906 5907 5907 5908 5908 5909 5910 5911 5912 5913 5914 5915 5915 5916 5916 5917 5917 5917 5918 5918 5918 5919 5919 5918 5918 5918 5918 5918 5918 5918 5918 5918 5918 5917 5917 5917 5917 5917 5917 5917 5917 5917 5917 5917 5917 5917 5916 5916 5916 5916 5916
5895 5896 5896 5895 5896 5897 5897 5898 5897 5896 5895 5895 5896 5896 5896 5895 5895 5894 5894 5894 5894 5894 5895 5895 5895 5895 5895 5896 5896 5896 5897 5897 5897 5897 5898 5899 5900 5901 5901 5902 5902 5903 5904 5905 5906 5906 5907 5907 5908 5909 5909 5910 5911 5912 5913 5914 5915 5916 5916 5917 5917 5918 5918 5919 5919 5920 5920 5920 5920 5920 5920 5920 5920 5920 5920 5919 5919 5919 5919 5919 5919 5919 5918 5919 5919 5919 5918 5918 5919 5919 5919 5918 5918 5917 5917 5918 5918
5894 5895 5895 5895 5896 5897 5898 5898 5897 5896 5894 5895 5895 5895 5895 5894 5894 5894 5894 5895 5895 5895 5895 5895 5895 5895 5895 5896 5896 5896 5896 5897 5897 5897 5898 5899 5900 5900 5901 5902 5902 5903 5904 5905 5906 5906 5907 5908 5909 5910 5910 5911 5912 5913 5914 5915 5916 5917 5917 5918 5918 5919 5919 5920 5920 5921 5921 5921 5921 5921 5921 5921 5921 5921 5921 5921 5920 5920 5920 5920 5920 5920 5920 5920 5920 5920 5919 5919 5920 5920 5920 5920 5919 5919 5919 5919 5919
5894 5895 5895 5894 5895 5897 5898 5898 5897 5896 5895 5894 5895 5895 5894 5894 5894 5894 5895 5896 5896 5896 5896 5896 5896 5896 5896 5896 5896 5896 5896 5897 5897 5897 5898 5898 5899 5900 5901 5902 5902 5903 5904 5905 5905 5906 5908 5909 5910 5911 5911 5912 5913 5914 5915 5916 5917 5917 5918 5919 5919 5920 5920 5921 5921 5921 5922 5922 5922 5922 5922 5922 5923 5923 5922 5922 5922 5921 5921 5921 5921 5921 5921 5921 5921 5921 5920 5920 5921 5922 5922 5921 5920 5920 5920 5920 5920
5893 5894 5894 5893 5894 5896 5898 5898 5897 5896 5895 5895 5895 5895 5894 5893 5894 5894 5895 5896 5896 5896 5896 5896 5896 5896 5896 5896 5896 5896 5896 5896 5897 5897 5898 5898 5899 5900 5901 5902 5902 5903 5904 5905 5906 5907 5908 5909 5911 5911 5912 5913 5914 5915 5916 5917 5917 5918 5919 5919 5920 5921 5921 5922 5922 5922 5922 5923 5923 5923 5924 5924 5924 5924 5924 5923 5923 5923 5922 5922 5922 5921 5922 5922 5922 5922 5922 5921 5921 5922 5922 5921 5921 5921 5921 5921 5921
5893 5893 5893 5893 5893 5895 5896 5897 5897 5896 5896 5895 5894 5894 5893 5893 5893 5893 5894 5895 5896 5896 5896 5896 5896 5896 5896 5896 5896 5896 5896 5896 5897 5897 5897 5898 5899 5900 5901 5902 5903 5904 5904 5905 5906 5907 5908 5910 5911 5912 5913 5914 5915 5916 5916 5917 5918 5919 5919 5920 5921 5921 5922 5922 5922 5923 5923 5924 5924 5924 5925 5925 5925 5925 5925 5924 5924 5924 5924 5923 5923 5922 5922 5923 5923 5923 5923 5923 5923 5922 5922 5922 5922 5922 5922 5922 5922
5892 5892 5892 5892 5892 5893 5894 5896 5896 5896 5895 5895 5894 5894 5893 5892 5893 5893 5894 5895 5896 5896 5897 5897 5897 5897 5896 5896 5896 5896 5896 5896 5897 5897 5897 5898 5899 5899 5900 5901 5903 5904 5905 5905 5907 5908 5909 5910 5911 5912 5913 5914 5915 5916 5917 5918 5918 5919 5920 5921 5921 5922 5922 5923 5923 5923 5924 5924 5925 5925 5926 5926 5926 5926 5926 5925 5925 5925 5925 5924 5924 5923 5923 5923 5923 5923 5924 5924 5924 5924 5923 5923 5923 5923 5923 5922 5922
5891 5891 5891 5891 5891 5892 5893 5894 5895 5895 5895 5895 5894 5893 5892 5892 5892 5894 5894 5895 5895 5896 5897 5897 5897 5897 5897 5896 5896 5896 5896 5896 5896 5897 5897 5898 5898 5899 5900 5901 5902 5904 5905 5906 5907 5908 5909 5911 5912 5913 5914 5915 5916 5917 5918 5918 5919 5920 5920 5921 5922 5922 5923 5923 5923 5924 5924 5925 5925 5926 5926 5926 5926 5926 5926 5926 5926 5926 5926 5925 5925 5925 5925 5925 5924 5924 5924 5924 5924 5924 5924 5924 5924 5924 5924 5923 5923
5890 5890 5890 5890 5891 5891 5892 5893 5894 5895 5895 5895 5894 5894 5893 5892 5892 5894 5895 5894 5895 5896 5896 5896 5897 5897 5897 5897 5896 5896 5896 5895 5896 5896 5897 5898 5899 5899 5900 5901 5902 5904 5905 5906 5908 5909 5910 5911 5912 5913 5914 5915 5916 5917 5918 5919 5919 5920 5921 5921 5922 5923 5923 5923 5924 5924 5925 5925 5926 5926 5927 5927 5927 5927 5927 5927 5927 5926 5926 5926 5926 5926 5926 5926 5926 5925 5925 5925 5925 5925 5925 5925 5925 5925 5925 5925 5924
5889 5889 5889 5889 5890 5890 5891 5892 5893 5894 5895 5895 5895 5894 5893 5893 5893 5894 5895 5895 5895 5895 5896 5896 5897 5897 5897 5897 5897 5896 5896 5895 5896 5896 5897 5898 5899 5900 5901 5902 5903 5904 5906 5907 5908 5909 5910 5911 5912 5914 5915 5916 5917 5917 5918 5919 5919 5920 5921 5922 5922 5923 5923 5924 5924 5924 5925 5926 5926 5927 5927 5927 5927 5927 5927 5927 5927 5927 5927 5927 5927 5927 5927 5927 5927 5927 5926 5926 5926 5926 5926 5926 5926 5926 5926 5926 5925
5887 5888 5888 5888 5889 5890 5891 5892 5892 5893 5895 5896 5895 5895 5894 5893 5893 5894 5894 5895 5895 5895 5896 5896 5896 5897 5897 5897 5897 5897 5896 5896 5896 5896 5897 5897 5898 5899 5901 5902 5903 5905 5906 5907 5908 5910 5911 5912 5913 5914 5915 5916 5917 5917 5918 5919 5920 5920 5921 5922 5922 5923 5923 5924 5924 5925 5925 5926 5926 5927 5927 5928 5928 5928 5928 5928 5928 5928 5928 5928 5928 5928 5928 5928 5928 5927 5927 5927 5927 5927 5927 5927 5927 5927 5927 5927 5926
5885 5885 5886 5888 5889 5890 5891 5891 5892 5893 5895 5896 5896 5895 5894 5893 5893 5893 5894 5894 5895 5895 5896 5896 5896 5897 5897 5897 5897 5897 5896 5896 5896 5896 5897 5897 5898 5899 5900 5902 5904 5905 5907 5908 5909 5910 5911 5912 5913 5914 5915 5916 5917 5917 5918 5919 5920 5921 5921 5922 5922 5923 5924 5924 5924 5925 5926 5926 5927 5927 5928 5928 5928 5928 5929 5929 5928 5929 5929 5929 5929 5929 5929 5929 5929 5928 5928 5928 5928 5928 5928 5928 5927 5927 5927 5927 5927
5883 5884 5885 5887 5888 5889 5890 5891 5891 5892 5894 5895 5895 5895 5894 5893 5893 5892 5893 5894 5895 5895 5896 5896 5897 5897 5897 5897 5897 5897 5896 5896 5896 5896 5897 5897 5898 5899 5900 5901 5904 5905 5907 5908 5909 5910 5911 5912 5913 5914 5915 5916 5917 5918 5918 5919 5920 5921 5921 5922 5923 5923 5924 5924 5925 5925 5926 5927 5927 5928 5928 5929 5929 5929 5929 5929 5929 5929 5930 5929 5929 5929 5929 5929 5929 5929 5929 5929 5929 5929 5929 5929 5928 5928 5928 5927 5927
5881 5882 5884 5886 5887 5888 5890 5890 5890 5892 5893 5894 5895 5894 5893 5893 5892 5892 5892 5893 5894 5895 5895 5896 5897 5897 5897 5898 5897 5897 5896 5896 5895 5896 5896 5897 5898 5899 5900 5901 5903 5905 5907 5908 5910 5911 5912 5913 5914 5915 5916 5916 5917 5918 5919 5919 5920 5921 5922 5922 5923 5923 5924 5925 5925 5926 5926 5927 5927 5928 5928 5929 5929 5929 5929 5929 5929 5930 5930 5930 5930 5929 5930 5930 5930 5930 5930 5930 5930 5930 5930 5930 5929 5929 5928 5928 5927
5880 5881 5883 5885 5885 5888 5889 5889 5890 5891 5892 5893 5894 5893 5893 5893 5892 5892 5892 5893 5894 5895 5895 5895 5897 5897 5897 5898 5897 5897 5897 5896 5896 5896 5896 5897 5898 5899 5901 5902 5903 5905 5907 5908 5910 5911 5912 5913 5914 5915 5916 5917 5918 5918 5919 5920 5920 5921 5922 5922 5923 5924 5924 5925 5925 5926 5927 5927 5928 5928 5929 5929 5929 5929 5930 5930 5930 5930 5930 5930 5930 5930 5930 5930 5930 5930 5930 5930 5930 5930 5930 5930 5929 5929 5928 5928 5927
5878 5879 5881 5883 5885 5887 5888 5888 5890 5890 5891 5892 5893 5893 5893 5893 5892 5892 5892 5893 5894 5895 5895 5895 5896 5897 5898 5898 5897 5897 5897 5896 5896 5896 5897 5897 5898 5900 5901 5903 5904 5906 5907 5909 5910 5911 5912 5913 5914 5915 5916 5917 5918 5919 5919 5920 5921 5921 5922 5923 5923 5924 5924 5925 5925 5926 5927 5928 5928 5929 5929 5929 5929 5930 5930 5930 5930 5930 5931 5931 5930 5930 5930 5930 5930 5930 5930 5930 5930 5930 5930 5929 5929 5929 5928 5927 5927
5876 5876 5879 5882 5884 5886 5887 5887 5889 5889 5889 5891 5891 5892 5892 5893 5892 5892 5892 5893 5894 5895 5895 5895 5896 5896 5897 5898 5897 5897 5897 5897 5896 5896 5897 5897 5899 5900 5901 5903 5905 5906 5907 5909 5910 5911 5913 5914 5914 5915 5916 5917 5918 5919 5919 5920 5921 5921 5922 5923 5924 5924 5925 5925 5926 5927 5928 5928 5929 5929 5929 5929 5930 5930 5930 5930 5930 5930 5931 5930 5930 5930 5930 5930 5930 5930 5930 5930 5930 5930 5929 5929 5929 5928 5928 5927 5927
5874 5875 5878 5881 5883 5885 5885 5886 5888 5887 5888 5890 5890 5890 5891 5891 5891 5891 5891 5892 5893 5894 5894 5894 5895 5896 5896 5897 5897 5897 5897 5896 5896 5896 5896 5897 5898 5900 5901 5903 5905 5906 5907 5909 5911 5912 5913 5914 5915 5916 5917 5917 5918 5918 5919 5920 5921 5922 5922 5923 5924 5924 5925 5926 5926 5927 5928 5928 5929 5929 5930 5930 5930 5930 5931 5931 5930 5931 5931 5930 5930 5930 5930 5931 5931 5930 5930 5930 5930 5930 5929 5929 5929 5928 5928 5927 5927
5873 5874 5877 5880 5882 5883 5883 5885 5886 5886 5886 5888 5888 5888 5889 5889 5889 5890 5890 5891 5893 5893 5894 5894 5895 5895 5896 5897 5897 5897 5897 5896 5896 5896 5896 5897 5898 5900 5901 5903 5904 5906 5908 5909 5910 5912 5913 5914 5915 5916 5917 5917 5918 5918 5919 5920 5921 5922 5923 5923 5924 5925 5925 5926 5927 5927 5928 5929 5929 5929 5930 5930 5930 5931 5931 5931 5931 5931 5931 5930 5930 5930 5931 5931 5931 5931 5931 5930 5930 5930 5929 5929 5929 5928 5928 5927 5927
5873 5874 5876 5878 5880 5881 5882 5883 5884 5884 5885 5886 5887 5887 5887 5888 5888 5889 5889 5890 5892 5892 5893 5894 5895 5895 5895 5896 5897 5897 5897 5896 5896 5897 5897 5897 5898 5899 5901 5903 5904 5906 5908 5909 5911 5912 5913 5914 5915 5916 5917 5917 5918 5918 5919 5920 5921 5922 5923 5923 5924 5925 5926 5926 5927 5927 5928 5929 5929 5929 5930 5930 5930 5931 5931 5931 5930 5930 5930 5930 5930 5930 5931 5931 5931 5931 5931 5931 5930 5930 5929 5929 5928 5928 5927 5927 5927
5871 5873 5874 5876 5878 5879 5881 5881 5881 5882 5883 5884 5885 5886 5886 5886 5887 5887 5888 5889 5890 5891 5892 5893 5894 5895 5895 5895 5896 5897 5897 5897 5897 5897 5898 5898 5898 5899 5901 5902 5904 5906 5908 5909 5911 5912 5913 5914 5915 5916 5917 5918 5918 5919 5920 5920 5921 5922 5923 5923 5924 5925 5926 5926 5927 5927 5928 5929 5929 5930 5930 5930 5930 5931 5931 5930 5930 5930 5930 5930 5930 5931 5931 5931 5931 5931 5931 5931 5931 5930 5930 5929 5928 5928 5927 5927 5926
5869 5870 5872 5874 5875 5877 5879 5879 5879 5879 5880 5883 5883 5883 5884 5885 5885 5885 5885 5886 5888 5890 5891 5892 5894 5895 5895 5895 5896 5896 5896 5897 5897 5897 5898 5898 5899 5899 5901 5902 5904 5905 5907 5909 5911 5913 5914 5914 5915 5916 5917 5918 5918 5919 5920 5920 5921 5922 5923 5923 5924 5925 5926 5926 5927 5927 5928 5929 5930 5930 5930 5930 5930 5931 5930 5930 5930 5930 5930 5930 5931 5931 5931 5931 5932 5932 5932 5931 5931 5930 5929 5929 5928 5927 5927 5927 5926
5866 5867 5869 5871 5873 5876 5878 5877 5877 5877 5878 5881 5881 5881 5883 5884 5884 5884 5883 5884 5885 5887 5889 5891 5893 5894 5894 5894 5895 5896 5896 5896 5896 5897 5898 5898 5899 5900 5901 5902 5904 5906 5907 5909 5911 5912 5913 5914 5915 5916 5917 5918 5918 5919 5920 5920 5921 5922 5922 5923 5924 5925 5926 5926 5927 5927 5928 5929 5930 5930 5930 5930 5931 5931 5930 5930 5930 5930 5930 5931 5931 5932 5932 5932 5932 5932 5932 5931 5931 5930 5929 5928 5927 5927 5926 5926 5926
5863 5864 5866 5868 5872 5875 5875 5875 5876 5875 5876 5878 5879 5879 5880 5881 5881 5881 5881 5882 5882 5884 5887 5889 5891 5893 5894 5894 5894 5895 5895 5896 5896 5896 5897 5898 5899 5900 5901 5903 5904 5905 5907 5908 5910 5911 5913 5914 5915 5917 5917 5918 5918 5919 5919 5920 5921 5921 5922 5923 5924 5925 5926 5926 5927 5928 5928 5929 5929 5930 5930 5930 5931 5931 5931 5931 5931 5931 5931 5931 5932 5932 5932 5932 5932 5932 5931 5931 5930 5929 5928 5928 5927 5926 5926 5925 5925
5860 5861 5863 5867 5870 5872 5873 5873 5873 5873 5873 5875 5876 5876 5876 5877 5878 5879 5880 5880 5880 5881 5883 5886 5888 5891 5893 5893 5893 5894 5895 5895 5895 5896 5897 5898 5899 5900 5901 5903 5904 5905 5906 5908 5909 5911 5913 5914 5915 5916 5917 5918 5918 5918 5919 5920 5920 5921 5922 5923 5924 5925 5926 5926 5927 5927 5928 5928 5929 5930 5930 5930 5931 5931 5931 5931 5931 5931 5931 5932 5932 5932 5932 5932 5931 5931 5930 5930 5930 5929 5928 5928 5927 5926 5925 5925 5924
5858 5859 5861 5866 5868 5869 5870 5870 5870 5870 5870 5872 5873 5872 5873 5875 5877 5879 5879 5879 5878 5879 5880 5883 5886 5889 5892 5892 5893 5893 5894 5894 5894 5895 5896 5898 5899 5900 5901 5902 5903 5904 5906 5907 5909 5911 5912 5913 5914 5915 5916 5917 5918 5918 5919 5920 5920 5921 5922 5922 5923 5924 5925 5926 5926 5927 5927 5928 5929 5929 5930 5930 5931 5931 5932 5932 5932 5932 5932 5932 5932 5932 5932 5931 5931 5931 5930 5929 5929 5929 5928 5927 5926 5925 5925 5924 5923
5855 5857 5860 5864 5865 5866 5867 5867 5867 5867 5867 5869 5870 5869 5871 5873 5875 5878 5878 5878 5878 5879 5879 5880 5883 5887 5890 5892 5892 5892 5893 5894 5894 5895 5896 5897 5898 5900 5901 5901 5903 5904 5906 5907 5908 5909 5910 5911 5913 5914 5915 5916 5917 5918 5918 5919 5920 5921 5921 5922 5923 5924 5924 5925 5926 5926 5927 5928 5928 5929 5930 5930 5931 5931 5932 5932 5932 5932 5932 5932 5932 5932 5931 5931 5930 5930 5930 5929 5928 5928 5927 5927 5926 5925 5925 5924 5923
5852 5856 5859 5860 5861 5862 5864 5865 5864 5863 5865 5867 5867 5865 5867 5869 5871 5874 5876 5877 5877 5877 5877 5878 5881 5885 5889 5891 5891 5892 5893 5893 5894 5894 5895 5896 5897 5899 5900 5902 5903 5904 5905 5906 5907 5908 5909 5911 5912 5913 5914 5915 5916 5917 5918 5919 5919 5920 5921 5921 5922 5923 5924 5924 5925 5926 5926 5927 5928 5928 5929 5929 5930 5931 5932 5932 5932 5932 5932 5932 5932 5931 5931 5930 5930 5930 5929 5929 5928 5927 5927 5926 5926 5925 5924 5923 5922
5851 5855 5856 5856 5858 5859 5861 5861 5860 5860 5862 5863 5863 5862 5862 5864 5868 5871 5873 5874 5875 5875 5876 5876 5878 5882 5886 5890 5891 5891 5891 5892 5893 5894 5894 5895 5896 5897 5899 5901 5903 5904 5904 5905 5907 5908 5909 5910 5912 5913 5914 5915 5916 5917 5917 5918 5919 5919 5920 5921 5922 5922 5923 5923 5924 5925 5926 5927 5927 5928 5928 5929 5929 5930 5931 5931 5932 5932 5932 5932 5932 5931 5930 5930 5929 5929 5929 5928 5928 5927 5926 5926 5925 5924 5924 5923 5922
5850 5852 5852 5853 5855 5856 5856 5857 5857 5859 5858 5856 5859 5860 5858 5860 5867 5869 5869 5871 5874 5875 5875 5875 5877 5880 5884 5888 5890 5890 5891 5891 5892 5893 5894 5894 5895 5896 5897 5899 5901 5902 5903 5905 5907 5907 5909 5910 5911 5912 5913 5914 5915 5916 5917 5917 5918 5919 5919 5920 5921 5921 5922 5923 5924 5924 5925 5926 5927 5927 5928 5928 5929 5929 5930 5931 5931 5931 5932 5932 5931 5930 5930 5929 5929 5929 5928 5928 5927 5927 5926 5925 5925 5924 5923 5922 5921
5848 5848 5847 5850 5851 5852 5852 5851 5854 5856 5850 5849 5857 5858 5855 5856 5863 5866 5866 5869 5874 5877 5876 5875 5875 5878 5881 5885 5888 5889 5890 5890 5891 5892 5893 5894 5894 5895 5896 5897 5899 5900 5902 5904 5905 5906 5908 5909 5910 5911 5912 5913 5914 5915 5916 5917 5917 5918 5919 5919 5920 5920 5921 5922 5923 5923 5924 5925 5926 5926 5927 5928 5928 5929 5929 5930 5930 5930 5931 5931 5930 5929 5929 5929 5928 5928 5928 5927 5927 5926 5925 5925 5924 5923 5922 5921 5920
5843 5842 5843 5846 5846 5848 5848 5847 5850 5848 5842 5845 5855 5857 5854 5853 5858 5862 5864 5868 5874 5877 5876 5874 5874 5875 5878 5882 5886 5888 5889 5890 5890 5891 5892 5893 5893 5894 5894 5896 5898 5899 5901 5903 5904 5906 5907 5908 5909 5910 5911 5912 5913 5913 5914 5915 5916 5917 5918 5918 5919 5919 5920 5921 5922 5922 5923 5924 5924 5925 5926 5926 5927 5928 5928 5929 5929 5929 5929 5929 5929 5929 5928 5928 5928 5928 5927 5926 5926 5925 5924 5924 5923 5922 5921 5920 5919
5837 5837 5840 5841 5841 5843 5842 5842 5843 5839 5836 5845 5853 5854 5852 5850 5853 5860 5863 5868 5872 5874 5875 5874 5873 5874 5876 5879 5882 5885 5887 5888 5889 5890 5891 5892 5892 5893 5894 5896 5897 5898 5900 5902 5903 5904 5906 5907 5908 5909 5910 5911 5912 5913 5913 5914 5915 5916 5917 5917 5918 5918 5920 5920 5921 5921 5922 5923 5923 5924 5925 5925 5926 5927 5927 5927 5927 5928 5928 5928 5928 5928 5928 5927 5927 5927 5926 5926 5925 5924 5924 5923 5922 5921 5919 5918 5917
5834 5835 5836 5836 5837 5838 5836 5836 5836 5833 5837 5846 5850 5851 5847 5845 5851 5858 5862 5866 5869 5872 5874 5873 5873 5873 5873 5876 5879 5881 5884 5885 5887 5889 5889 5890 5891 5893 5894 5895 5896 5898 5899 5900 5901 5903 5904 5906 5907 5908 5909 5910 5910 5911 5912 5913 5914 5915 5916 5916 5917 5917 5918 5919 5920 5920 5921 5922 5923 5923 5924 5924 5925 5925 5926 5926 5926 5926 5926 5927 5927 5927 5927 5927 5926 5926 5925 5925 5924 5923 5923 5922 5921 5919 5918 5917 5916
5833 5833 5833 5833 5833 5833 5831 5834 5834 5834 5840 5844 5847 5847 5840 5841 5850 5856 5860 5864 5867 5869 5872 5872 5873 5873 5873 5875 5877 5879 5881 5882 5884 5886 5887 5888 5890 5891 5892 5894 5895 5896 5898 5899 5900 5901 5903 5904 5905 5907 5908 5908 5909 5910 5911 5912 5913 5913 5914 5915 5915 5916 5917 5918 5918 5919 5920 5920 5921 5922 5922 5923 5924 5924 5924 5925 5925 5925 5925 5925 5925 5925 5925 5925 5925 5925 5924 5924 5923 5922 5922 5921 5920 5919 5917 5916 5915
5830 5832 5831 5830 5831 5831 5832 5834 5833 5834 5839 5841 5842 5840 5834 5839 5849 5854 5858 5861 5863 5866 5869 5870 5872 5873 5873 5874 5875 5877 5878 5879 5881 5883 5885 5886 5888 5889 5890 5892 5893 5895 5896 5897 5898 5900 5901 5903 5904 5905 5906 5907 5908 5909 5910 5911 5911 5912 5912 5913 5914 5915 5916 5916 5917 5917 5918 5919 5920 5921 5921 5921 5922 5922 5923 5923 5923 5923 5923 5923 5924 5924 5924 5924 5924 5924 5923 5923 5922 5922 5921 5920 5919 5918 5917 5916 5915
5825 5826 5825 5827 5832 5832 5831 5832 5831 5833 5835 5835 5836 5834 5834 5840 5847 5850 5854 5857 5859 5863 5866 5868 5870 5871 5872 5873 5874 5875 5877 5878 5880 5881 5882 5884 5886 5887 5888 5889 5891 5893 5894 5895 5897 5898 5900 5901 5902 5903 5904 5905 5906 5907 5908 5909 5909 5910 5910 5911 5912 5913 5914 5915 5915 5916 5917 5917 5918 5919 5920 5920 5920 5921 5921 5922 5922 5922 5922 5922 5922 5922 5922 5922 5922 5922 5922 5922 5921 5921 5921 5920 5919 5918 5917 5916 5914
5820 5819 5822 5829 5832 5829 5827 5828 5830 5831 5829 5829 5831 5832 5835 5840 5842 5846 5850 5853 5857 5859 5862 5865 5868 5869 5871 5871 5872 5874 5876 5878 5880 5881 5882 5882 5883 5884 5885 5887 5889 5890 5892 5893 5895 5897 5898 5899 5899 5900 5901 5902 5904 5905 5906 5907 5907 5908 5909 5909 5910 5911 5912 5913 5913 5914 5915 5915 5916 5917 5918 5918 5919 5919 5920 5920 5920 5921 5921 5921 5921 5921 5920 5921 5921 5921 5921 5920 5920 5920 5920 5919 5918 5917 5916 5915 5913
5814 5816 5823 5827 5825 5822 5822 5823 5826 5825 5823 5824 5828 5830 5833 5836 5838 5842 5846 5849 5853 5856 5859 5862 5864 5866 5868 5869 5871 5873 5874 5876 5878 5879 5880 5880 5881 5882 5883 5884 5886 5888 5890 5892 5893 5894 5895 5896 5896 5898 5898 5900 5902 5902 5903 5904 5905 5906 5906 5907 5908 5909 5910 5911 5911 5912 5912 5913 5914 5915 5916 5916 5917 5917 5918 5918 5918 5919 5919 5919 5919 5919 5919 5919 5919 5919 5919 5919 5918 5918 5918 5918 5917 5916 5915 5914 5912
5810 5815 5820 5818 5816 5817 5818 5819 5820 5820 5820 5822 5826 5828 5830 5832 5835 5839 5843 5846 5850 5853 5855 5858 5861 5863 5865 5867 5870 5871 5872 5874 5875 5876 5877 5878 5879 5880 5881 5882 5883 5885 5887 5889 5890 5891 5892 5893 5894 5895 5896 5897 5898 5899 5900 5901 5902 5903 5904 5905 5905 5906 5908 5908 5909 5909 5910 5912 5912 5913 5913 5914 5914 5915 5916 5916 5916 5917 5917 5918 5918 5918 5918 5918 5918 5917 5917 5917 5917 5917 5917 5916 5916 5915 5914 5913 5911
5808 5811 5812 5811 5812 5814 5815 5815 5817 5819 5819 5821 5824 5826 5827 5830 5834 5837 5840 5843 5847 5850 5852 5854 5857 5860 5862 5865 5867 5869 5870 5871 5873 5874 5875 5877 5877 5878 5878 5879 5881 5883 5884 5886 5887 5888 5889 5890 5891 5892 5893 5894 5895 5897 5898 5899 5900 5901 5901 5902 5903 5904 5905 5906 5906 5907 5908 5909 5910 5910 5911 5911 5912 5912 5913 5913 5914 5915 5915 5916 5916 5916 5916 5916 5916 5915 5915 5915 5915 5915 5915 5915 5914 5913 5913 5911 5910
5804 5805 5807 5808 5809 5810 5811 5811 5813 5815 5817 5819 5821 5823 5825 5830 5834 5835 5837 5840 5843 5846 5848 5851 5853 5856 5858 5861 5864 5866 5867 5869 5871 5872 5873 5875 5875 5876 5876 5876 5877 5879 5881 5882 5883 5884 5886 5887 5888 5890 5891 5892 5893 5894 5895 5896 5897 5898 5898 5899 5900 5901 5902 5903 5904 5905 5906 5907 5907 5908 5908 5908 5909 5910 5910 5911 5911 5912 5913 5914 5914 5915 5915 5914 5914 5914 5913 5913 5913 5914 5914 5913 5912 5912 5911 5910 5909
5800 5802 5804 5807 5808 5808 5807 5808 5811 5814 5815 5817 5818 5819 5824 5830 5832 5832 5834 5836 5838 5841 5844 5846 5849 5851 5854 5857 5860 5863 5864 5866 5868 5869 5870 5871 5872 5873 5873 5873 5874 5875 5877 5879 5880 5882 5883 5884 5885 5887 5888 5889 5891 5892 5893 5893 5894 5894 5895 5896 5897 5898 5899 5900 5901 5902 5904 5904 5905 5905 5905 5905 5906 5907 5907 5908 5909 5909 5911 5912 5912 5913 5913 5913 5912 5912 5911 5911 5911 5912 5912 5911 5910 5910 5909 5908 5907